User: anonymous   Login
Location: Newark
(54.6833°N, 25.2833°E)
Time: 04:17:38
(UTC+00:00)
Language:

AO-7 - Orbit

View from above orbital plane
View from above orbital plane
View from above satellite
View from above satellite

Ground track
Ground track

The orbit data is extracted from the following two-line orbital elements,

1  7530U 74089B   20304.17302683 -.00000039 +00000-0 +37057-4 0  9991
2  7530 101.8196 273.2461 0012458 103.8222 268.2983 12.53645867102879
Epoch (UTC): 30 October 2020 04:09:09
Eccentricity: 0.0012458
inclination: 101.8196°
perigee height: 1439 km
apogee height: 1459 km
right ascension of ascending node: 273.2461°
argument of perigee: 103.8222°
revolutions per day: 12.53645867
mean anomaly at epoch: 268.2983°
orbit number at epoch: 10287

The dashed part of the orbit path shows where the satellite is in the earth's shadow,  

DLR